When you browse on this site, cookies collect data to enhance your experience and personalize the content and advertising you see.
Visit our Privacy Policy to learn more. By continuing to use the site, you agree to this use of cookies and data.
  • In Spain
  • List of Countries
  • For 7 days
  • Water Temperature
  • Satellite Maps
  • Weather Map
  • Weather Widgets
  • user-avatar
    Login

    Hourly Weather Macon

    Today, 21 April, Sunday

    Time Temperature Precipitation Wind Pressure Humidity
    00:00 +9°C° 0 mm 2 mps 752 mmHg 83%
    01:00 +9°C° 0 mm 2 mps 753 mmHg 84%
    02:00 +8°C° 0 mm 2 mps 753 mmHg 84%
    03:00 +8°C° 0 mm 2 mps 753 mmHg 85%
    04:00 +8°C° 0 mm 2 mps 753 mmHg 82%
    05:00 +9°C° 0 mm 2 mps 754 mmHg 80%
    06:00 +9°C° 0 mm 2 mps 754 mmHg 77%
    07:00 +12°C° 0 mm 3 mps 755 mmHg 65%
    08:00 +14°C° 0 mm 3 mps 755 mmHg 52%
    09:00 +18°C° 0 mm 4 mps 755 mmHg 39%
    10:00 +20°C° 0 mm 4 mps 755 mmHg 36%
    11:00 +21°C° 0 mm 4 mps 755 mmHg 33%
    12:00 +22°C° 0 mm 4 mps 755 mmHg 30%
    13:00 +23°C° 0 mm 4 mps 755 mmHg 30%
    14:00 +23°C° 0 mm 4 mps 755 mmHg 30%
    15:00 +23°C° 0 mm 4 mps 754 mmHg 31%
    16:00 +21°C° 0 mm 3 mps 755 mmHg 39%
    17:00 +19°C° 0 mm 2 mps 755 mmHg 47%
    18:00 +18°C° 0 mm 1 mps 755 mmHg 56%
    19:00 +16°C° 0 mm 1 mps 755 mmHg 58%
    20:00 +15°C° 0 mm 1 mps 756 mmHg 60%
    21:00 +14°C° 0 mm 1 mps 757 mmHg 62%
    22:00 +14°C° 0 mm 1 mps 757 mmHg 62%
    23:00 +13°C° 0 mm 1 mps 757 mmHg 63%

    Tomorrow, 22 April, Monday

    Time Temperature Precipitation Wind Pressure Humidity
    00:00 +13°C° 0 mm 1 mps 757 mmHg 63%
    01:00 +12°C° 0 mm 1 mps 756 mmHg 65%
    02:00 +12°C° 0 mm 1 mps 756 mmHg 66%
    03:00 +12°C° 0 mm 1 mps 756 mmHg 67%
    04:00 +12°C° 0 mm 1 mps 757 mmHg 69%
    05:00 +12°C° 0 mm 1 mps 757 mmHg 70%
    06:00 +13°C° 0 mm 1 mps 757 mmHg 72%
    07:00 +16°C° 0 mm 1 mps 758 mmHg 63%
    08:00 +20°C° 0 mm 1 mps 758 mmHg 54%
    09:00 +23°C° 0 mm 1 mps 758 mmHg 45%
    10:00 +24°C° 0 mm 1 mps 758 mmHg 41%
    11:00 +26°C° 0 mm 1 mps 758 mmHg 37%
    12:00 +28°C° 0 mm 1 mps 757 mmHg 32%
    13:00 +28°C° 0 mm 1 mps 757 mmHg 33%
    14:00 +29°C° 0 mm 1 mps 756 mmHg 33%
    15:00 +27°C° 0 mm 0 mps 756 mmHg 34%
    16:00 +25°C° 0 mm 0 mps 756 mmHg 40%
    17:00 +22°C° 0 mm 0 mps 756 mmHg 46%
    18:00 +20°C° 0 mm 0 mps 756 mmHg 52%
    19:00 +19°C° 0 mm 0 mps 756 mmHg 54%
    20:00 +20°C° 0 mm 1 mps 756 mmHg 55%
    21:00 +19°C° 0 mm 1 mps 757 mmHg 57%
    22:00 +18°C° 0 mm 1 mps 757 mmHg 59%
    23:00 +18°C° 0 mm 1 mps 756 mmHg 62%

    Day after tomorrow, 23 April, Tuesday

    Time Temperature Precipitation Wind Pressure Humidity
    00:00 +16°C° 0 mm 1 mps 756 mmHg 64%
    01:00 +16°C° 0 mm 1 mps 756 mmHg 67%
    02:00 +16°C° 0 mm 1 mps 756 mmHg 69%
    03:00 +15°C° 0 mm 1 mps 756 mmHg 71%
    04:00 +15°C° 0 mm 0 mps 756 mmHg 73%
    05:00 +15°C° 0 mm 0 mps 756 mmHg 74%
    06:00 +16°C° 0 mm 0 mps 756 mmHg 76%
    07:00 +19°C° 0 mm 0 mps 757 mmHg 68%
    08:00 +22°C° 0 mm 0 mps 757 mmHg 60%
    09:00 +25°C° 0 mm 0 mps 757 mmHg 52%
    10:00 +28°C° 0 mm 1 mps 756 mmHg 47%
    11:00 +29°C° 0 mm 1 mps 756 mmHg 42%
    12:00 +31°C° 0 mm 1 mps 756 mmHg 37%
    13:00 +30°C° 0 mm 2 mps 755 mmHg 38%
    14:00 +30°C° 0 mm 2 mps 754 mmHg 38%
    15:00 +30°C° 0 mm 2 mps 754 mmHg 38%
    16:00 +28°C° 0 mm 2 mps 754 mmHg 46%
    17:00 +26°C° 0 mm 2 mps 754 mmHg 54%
    18:00 +24°C° 0 mm 1 mps 754 mmHg 62%
    19:00 +23°C° 0 mm 1 mps 754 mmHg 64%
    20:00 +22°C° 0 mm 1 mps 754 mmHg 66%
    21:00 +21°C° 0 mm 1 mps 754 mmHg 68%
    22:00 +21°C° 0 mm 1 mps 754 mmHg 69%
    23:00 +20°C° 0 mm 1 mps 754 mmHg 71%

    24 April, Wednesday

    Time Temperature Precipitation Wind Pressure Humidity
    00:00 +20°C° 0 mm 1 mps 754 mmHg 72%
    01:00 +19°C° 0 mm 1 mps 754 mmHg 72%
    02:00 +19°C° 0 mm 1 mps 754 mmHg 73%
    03:00 +19°C° 0 mm 1 mps 754 mmHg 73%
    04:00 +19°C° 0 mm 1 mps 754 mmHg 74%
    05:00 +19°C° 0 mm 1 mps 754 mmHg 76%
    06:00 +19°C° 0 mm 1 mps 754 mmHg 77%
    07:00 +22°C° 0 mm 1 mps 754 mmHg 68%
    08:00 +25°C° 0 mm 2 mps 754 mmHg 59%
    09:00 +27°C° 0 mm 2 mps 755 mmHg 50%
    10:00 +29°C° 0 mm 2 mps 754 mmHg 46%
    11:00 +30°C° 0 mm 2 mps 754 mmHg 42%
    12:00 +31°C° 0 mm 2 mps 754 mmHg 37%
    13:00 +31°C° 0 mm 2 mps 753 mmHg 37%
    14:00 +31°C° 0 mm 2 mps 753 mmHg 37%
    15:00 +31°C° 0 mm 2 mps 752 mmHg 38%
    16:00 +29°C° 0 mm 2 mps 752 mmHg 46%
    17:00 +27°C° 0 mm 2 mps 752 mmHg 54%
    18:00 +25°C° 0 mm 2 mps 752 mmHg 62%
    19:00 +24°C° 0 mm 2 mps 752 mmHg 64%
    20:00 +23°C° 0 mm 2 mps 753 mmHg 66%
    21:00 +21°C° 0 mm 2 mps 753 mmHg 67%
    22:00 +21°C° 0 mm 2 mps 753 mmHg 68%
    23:00 +20°C° 0 mm 2 mps 753 mmHg 69%

    25 April, Thursday

    Time Temperature Precipitation Wind Pressure Humidity
    00:00 +21°C° 0 mm 1 mps 752 mmHg 70%
    01:00 +20°C° 0 mm 1 mps 752 mmHg 70%
    02:00 +20°C° 0 mm 1 mps 752 mmHg 70%
    03:00 +19°C° 0 mm 1 mps 752 mmHg 71%
    04:00 +19°C° 0 mm 1 mps 752 mmHg 73%
    05:00 +19°C° 0 mm 1 mps 753 mmHg 75%
    06:00 +19°C° 0 mm 1 mps 753 mmHg 77%
    07:00 +22°C° 0 mm 1 mps 754 mmHg 67%
    08:00 +25°C° 0 mm 1 mps 754 mmHg 58%
    09:00 +28°C° 0 mm 1 mps 754 mmHg 48%
    10:00 +29°C° 0 mm 2 mps 753 mmHg 45%
    11:00 +30°C° 0 mm 3 mps 753 mmHg 41%
    12:00 +32°C° 0 mm 4 mps 753 mmHg 38%
    13:00 +32°C° 0 mm 4 mps 752 mmHg 39%
    14:00 +30°C° 0 mm 4 mps 752 mmHg 40%
    15:00 +30°C° 0 mm 4 mps 752 mmHg 42%
    16:00 +28°C° 0 mm 3 mps 752 mmHg 50%
    17:00 +26°C° 0 mm 2 mps 752 mmHg 58%
    18:00 +24°C° 0 mm 2 mps 752 mmHg 66%
    19:00 +24°C° 0.1 mm 1 mps 752 mmHg 69%
    20:00 +23°C° 0.1 mm 1 mps 752 mmHg 71%
    21:00 +22°C° 0.1 mm 1 mps 752 mmHg 74%
    22:00 +22°C° 0 mm 1 mps 752 mmHg 77%
    23:00 +19°C° 0 mm 0 mps 752 mmHg 81%

    26 April, Friday

    Time Temperature Precipitation Wind Pressure Humidity
    00:00 +18°C° 0 mm 0 mps 752 mmHg 84%
    01:00 +18°C° 0 mm 0 mps 751 mmHg 85%
    02:00 +18°C° 0 mm 0 mps 751 mmHg 86%
    03:00 +20°C° 0 mm 1 mps 751 mmHg 87%
    04:00 +18°C° 0 mm 0 mps 751 mmHg 86%
    05:00 +18°C° 0 mm 0 mps 751 mmHg 86%
    06:00 +18°C° 0 mm 0 mps 751 mmHg 86%
    07:00 +20°C° 0.1 mm 0 mps 752 mmHg 82%
    08:00 +21°C° 0.1 mm 0 mps 752 mmHg 77%
    09:00 +24°C° 0.1 mm 1 mps 752 mmHg 73%
    10:00 +22°C° 0.7 mm 0 mps 752 mmHg 74%
    11:00 +22°C° 0.7 mm 0 mps 751 mmHg 75%
    12:00 +22°C° 0.7 mm 0 mps 751 mmHg 77%
    13:00 +25°C° 0.9 mm 1 mps 751 mmHg 75%
    14:00 +25°C° 0.9 mm 1 mps 751 mmHg 74%
    15:00 +26°C° 0.9 mm 1 mps 750 mmHg 72%
    16:00 +24°C° 0.9 mm 1 mps 751 mmHg 78%
    17:00 +23°C° 0.9 mm 1 mps 751 mmHg 84%
    18:00 +22°C° 0.9 mm 1 mps 751 mmHg 90%
    19:00 +21°C° 0 mm 1 mps 752 mmHg 91%
    20:00 +20°C° 0 mm 1 mps 752 mmHg 92%
    21:00 +20°C° 0 mm 1 mps 752 mmHg 93%
    22:00 +19°C° 0 mm 1 mps 752 mmHg 94%
    23:00 +19°C° 0 mm 1 mps 752 mmHg 95%
    Show more